Location: Alafon
(8.4500°N, 4.2333°E)
Time: 01:22:08
(UTC+00:00)

Intelsat 5-1 Rocket - Pass Details

Date: 05 July 2020
Orbit: 311 x 7609 km, 24.0° (Epoch: 06 August)

Event Time Altitude Azimuth Distance (km) Brightness Sun altitude
Rises 18:45:29 0° 297° (WNW) 5,032 9.1 -9.8°
Reaches altitude 10° 18:50:19 10° 303° (WNW) 3,019 7.1 -10.9°
Maximum altitude 18:56:09 38° 12° (NNE) 876 2.9 -12.2°
Enters shadow 18:58:24 15° 77° (ENE) 1,241 3.2 -12.7°
